"Pseudo-MPEC" for P21FR9u

Created 2023 Jun 20 21:22:11 UT using Find_Orb

Click here for an explanation of pseudo-MPECs

 
 Astrometry: 
     P21FR9u* C2023 05 31jZfENy5y=wAstrometry@!Og9Cw@pHVredacted;SwMvMV;;C_OaF52
     P21FR9u  C2023 05 31KN5%chB:.wCv6fMV6vgCM:@p5omtyTMC%k1!_@x)phowy,sf)ZIUF52
     P21FR9u  C2023 05 31+8clickJx3#here-gQPforlexplanationvbG[\Ed,g4)f@WRIW3F52

Station data:
(F52) Pan-STARRS 2, Haleakala  (N20.707382 W156.255910)  US/Hawaii.
   Observers J. Bulger, T. Dukes, T. Lowe, A. Schultz, M. Willman. Measurers
   K. Chambers, S. Chastel, T. de Boer, L. Denneau, J. Fairlamb, H.
   Flewelling, M. Huber, C.-C. Lin, E. Magnier, Y. Ramanjooloo, R. Wainscoat,
   R. Weryk. 1.8-m Ritchey-Chrétien + CCD.

Orbital elements:  P21FR9u
   Perihelion 2021 Sep 6.64009 +/- 330 TT = 15:21:44 (JD 2459464.14009)
Epoch 2023 Jun  1.0 TT = JDT 2460096.5                           AutoNEOCP
M 123.85037451 +/- 110              (J2000 ecliptic)
n   0.19585424 +/- 0.415            Peri.  276.02912 +/- 60
a   2.93661750 +/- 4.15             Node   249.65109 +/- 70
e   0.3602187 +/- 0.21              Incl.   21.53675 +/- 38
P   5.03                   H 15.78  G  0.15   U 12.2  SR
q 1.87879281 +/- 1.48    Q 3.99444220 +/- 42.7
From 3 observations 2023 May 31 (33.3 min); mean residual 0".04
Residuals in arcseconds: 
230531 F52  .02+  .04+    230531 F52  .03-  .07-    230531 F52  .02+  .04+    

Ephemerides (geocentric):
Date (UTC) HH   RA             Dec           delta  r     elong  mag " sig PA
---- --------  ------------   ------------  ------ ------ -----  --- --------
2023 06 20 21  21 41 02.688   +11 07 41.37  3.2130 3.7562 114.9 22.0  55d   4
2023 06 20 22  21 41 02.104   +11 07 55.92  3.2126 3.7563 115.0 22.0  55d   4
2023 06 20 23  21 41 01.518   +11 08 10.46  3.2122 3.7564 115.0 22.0  56d   4
2023 06 21 00  21 41 00.930   +11 08 24.99  3.2117 3.7564 115.0 22.0  56d   4
2023 06 21 01  21 41 00.340   +11 08 39.50  3.2113 3.7565 115.1 22.0  56d   4
2023 06 21 02  21 40 59.749   +11 08 54.00  3.2109 3.7566 115.1 22.0  56d   4
2023 06 21 03  21 40 59.155   +11 09 08.49  3.2104 3.7567 115.1 22.0  56d   4
2023 06 21 04  21 40 58.560   +11 09 22.97  3.2100 3.7567 115.2 22.0  56d   4
2023 06 21 05  21 40 57.963   +11 09 37.44  3.2096 3.7568 115.2 22.0  56d   4
2023 06 21 06  21 40 57.365   +11 09 51.90  3.2092 3.7569 115.3 22.0  56d   4
2023 06 21 07  21 40 56.764   +11 10 06.34  3.2087 3.7570 115.3 22.0  56d   4
2023 06 21 08  21 40 56.162   +11 10 20.77  3.2083 3.7570 115.3 22.0  56d   4
2023 06 21 09  21 40 55.558   +11 10 35.19  3.2079 3.7571 115.4 22.0  56d   4
2023 06 21 10  21 40 54.952   +11 10 49.60  3.2074 3.7572 115.4 22.0  56d   4
2023 06 21 11  21 40 54.344   +11 11 04.00  3.2070 3.7573 115.4 22.0  57d   4
2023 06 21 12  21 40 53.735   +11 11 18.38  3.2066 3.7573 115.5 22.0  57d   4
2023 06 21 13  21 40 53.124   +11 11 32.76  3.2062 3.7574 115.5 22.0  57d   4
2023 06 21 14  21 40 52.510   +11 11 47.12  3.2057 3.7575 115.5 22.0  57d   4
2023 06 21 15  21 40 51.896   +11 12 01.47  3.2053 3.7576 115.6 22.0  57d   4
2023 06 21 16  21 40 51.279   +11 12 15.81  3.2049 3.7576 115.6 22.0  58d   5
2023 06 21 17  21 40 50.660   +11 12 30.14  3.2045 3.7577 115.6 22.0  58d   5
2023 06 21 18  21 40 50.040   +11 12 44.45  3.2040 3.7578 115.7 22.0  58d   4
2023 06 21 19  21 40 49.418   +11 12 58.75  3.2036 3.7579 115.7 22.0  58d   4
2023 06 21 20  21 40 48.794   +11 13 13.05  3.2032 3.7579 115.8 22.0  58d   4
2023 06 21 21  21 40 48.169   +11 13 27.33  3.2028 3.7580 115.8 22.0  58d   4
2023 06 21 22  21 40 47.541   +11 13 41.59  3.2023 3.7581 115.8 22.0  58d   4
2023 06 21 23  21 40 46.912   +11 13 55.85  3.2019 3.7582 115.9 22.0  59d   4
2023 06 22 00  21 40 46.281   +11 14 10.09  3.2015 3.7582 115.9 22.0  59d   4
2023 06 22 01  21 40 45.648   +11 14 24.33  3.2011 3.7583 115.9 22.0  59d   4
2023 06 22 02  21 40 45.014   +11 14 38.55  3.2006 3.7584 116.0 22.0  59d   4
2023 06 22 03  21 40 44.377   +11 14 52.75  3.2002 3.7585 116.0 22.0  59d   4
2023 06 22 04  21 40 43.739   +11 15 06.95  3.1998 3.7585 116.0 22.0  59d   4
2023 06 22 05  21 40 43.099   +11 15 21.14  3.1994 3.7586 116.1 22.0  59d   4
2023 06 22 06  21 40 42.457   +11 15 35.31  3.1990 3.7587 116.1 22.0  59d   4
2023 06 22 07  21 40 41.814   +11 15 49.47  3.1985 3.7588 116.1 22.0  59d   4
2023 06 22 08  21 40 41.168   +11 16 03.62  3.1981 3.7588 116.2 22.0  59d   4
2023 06 22 09  21 40 40.521   +11 16 17.76  3.1977 3.7589 116.2 22.0  59d   4
2023 06 22 10  21 40 39.872   +11 16 31.88  3.1973 3.7590 116.3 22.0  59d   4
2023 06 22 11  21 40 39.221   +11 16 45.99  3.1968 3.7590 116.3 22.0  59d   3
2023 06 22 12  21 40 38.569   +11 17 00.09  3.1964 3.7591 116.3 22.0  59d   3
2023 06 22 13  21 40 37.915   +11 17 14.18  3.1960 3.7592 116.4 22.0  59d   3
2023 06 22 14  21 40 37.258   +11 17 28.26  3.1956 3.7593 116.4 22.0  59d   3
2023 06 22 15  21 40 36.601   +11 17 42.32  3.1952 3.7593 116.4 22.0  59d   3
2023 06 22 16  21 40 35.941   +11 17 56.38  3.1947 3.7594 116.5 22.0  59d   3
2023 06 22 17  21 40 35.279   +11 18 10.42  3.1943 3.7595 116.5 22.0  59d   3
2023 06 22 18  21 40 34.616   +11 18 24.45  3.1939 3.7596 116.5 22.0  59d   3
2023 06 22 19  21 40 33.951   +11 18 38.46  3.1935 3.7596 116.6 22.0  59d   3
2023 06 22 20  21 40 33.284   +11 18 52.47  3.1931 3.7597 116.6 22.0  59d   3